Flag for Germany Weather past 2 weeks in Georgsmarienhütte, Lower Saxony, Germany

Now
70 °F

Scattered clouds.


Feels Like: 70 °F
Forecast: 57 / 74 °F
Wind: 10 mph from North

Location: Muenster / Osnabrueck

Current Time: Jul 30, 2014 at 12:08:28 PM

Latest Report: Jul 30, 2014 at 11:20 AM


Visibility: N/A

Pressure: 29.86 "Hg

Humidity: 64%

Dew point: 57 °F

Location of GeorgsmarienhütteLocation

Historic Weather in Georgsmarienhütte — Graph

°F

Georgsmarienhütte temperature yesterday

Maximum temperature yesterday: 81 °F (at 3:20 PM)
Minimum temperature yesterday: 63 °F (at 5:20 AM)
Average temperature yesterday: 72 °F

Past Weeks' High & Low Weather Summary

 TemperatureHumidityPressure
High93 °F (Jul 19, 2:20 PM)100% (Jul 16, 2:20 AM)30.18 "Hg (Jul 16, 2:20 AM)
Low55 °F (Jul 17, 4:50 AM)19% (Jul 19, 3:20 PM)29.74 "Hg (Jul 20, 4:50 AM)
Average71 °F73%29.97 "Hg
* Reported Jul 15 10:20 AM — Jul 30 10:50 AM, Georgsmarienhütte, Weather by CustomWeather, © 2014

Note: Actual official high and low records may vary slightly from our data, if they occured in-between our weather recording intervals... More about our weather records

Advertising

Georgsmarienhütte weather history for previous 24 hours

 ConditionsComfort  
Time TempWeatherWind HumidityBarometerVisibility
10:50 AM
Jul 30
68 °FScattered clouds.9 mph69%29.86 "HgN/A
10:20 AM70 °FBroken clouds.9 mph73%29.86 "HgN/A
9:50 AM68 °FBroken clouds.10 mph78%29.86 "HgN/A
9:20 AM66 °FBroken clouds.10 mph78%29.86 "HgN/A
8:50 AM66 °FPartly sunny.9 mph83%29.86 "HgN/A
8:20 AM64 °FBroken clouds.8 mph83%29.86 "HgN/A
7:50 AM63 °FBroken clouds.8 mph94%29.83 "HgN/A
7:20 AM64 °FPartly sunny.9 mph88%29.83 "HgN/A
6:50 AM64 °FPartly sunny.8 mph88%29.83 "HgN/A
6:20 AM64 °FPassing clouds.8 mph88%29.83 "HgN/A
5:50 AM64 °FPartly cloudy.9 mph88%29.83 "HgN/A
5:20 AM64 °FPartly cloudy.7 mph88%29.80 "HgN/A
4:50 AM64 °FPartly cloudy.8 mph88%29.80 "HgN/A
4:20 AM64 °FPartly cloudy.9 mph88%29.80 "HgN/A
3:50 AM64 °FPassing clouds.7 mph94%29.80 "HgN/A
3:20 AM64 °FPartly cloudy.9 mph94%29.80 "HgN/A
2:50 AM66 °FPassing clouds.7 mph88%29.80 "HgN/A
2:20 AM66 °FPassing clouds.8 mph88%29.80 "HgN/A
1:50 AM66 °FPassing clouds.6 mph88%29.80 "HgN/A
1:20 AM68 °FPassing clouds.5 mph83%29.83 "HgN/A
12:50 AM68 °FPartly cloudy.5 mph83%29.83 "HgN/A
12:20 AM68 °FPartly cloudy.6 mph83%29.83 "HgN/A
11:50 PM
Jul 29
70 °FPassing clouds.5 mph78%29.83 "HgN/A
11:20 PM72 °FPartly cloudy.6 mph73%29.83 "HgN/A
10:50 PM72 °FPartly cloudy.6 mph73%29.80 "HgN/A
10:20 PM72 °FLight rain. Broken clouds.6 mph78%29.83 "HgN/A
9:50 PM72 °FBroken clouds.3 mph78%29.83 "HgN/A
9:20 PM73 °FBroken clouds.5 mph78%29.80 "HgN/A
8:50 PM73 °FBroken clouds.3 mph78%29.80 "HgN/A
8:20 PM73 °FBroken clouds.6 mph78%29.80 "HgN/A
7:50 PM73 °FBroken clouds.8 mph78%29.80 "HgN/A
7:20 PM77 °FPartly sunny.7 mph69%29.77 "HgN/A
6:50 PM79 °FBroken clouds.5 mph65%29.77 "HgN/A
6:20 PM77 °FBroken clouds.3 mph79%29.77 "HgN/A
5:50 PM75 °FSprinkles. Broken clouds.3 mph78%29.77 "HgN/A
5:20 PM75 °FThunderstorms. Partly sunny.12 mph78%29.77 "HgN/A
4:50 PM81 °FBroken clouds.12 mph54%29.77 "HgN/A
4:20 PM81 °FBroken clouds.7 mph62%29.80 "HgN/A
3:50 PM81 °FBroken clouds.6 mph58%29.80 "HgN/A
3:20 PM81 °FBroken clouds.7 mph58%29.80 "HgN/A
2:50 PM79 °FPartly sunny.5 mph61%29.83 "HgN/A
2:20 PM75 °FThunderstorms. Partly sunny.3 mph69%29.83 "HgN/A
1:50 PM75 °FSprinkles. Partly sunny.8 mph69%29.83 "HgN/A
1:20 PM79 °FPartly sunny.8 mph61%29.83 "HgN/A
12:50 PM79 °FPartly sunny.6 mph65%29.83 "HgN/A
12:20 PM77 °FPartly sunny.7 mph65%29.83 "Hg6 mi
Weather by CustomWeather, © 2014

See weather overviewHow to use our weather pages